sat.trackr.live / text

‹ back to catalog

STARLINK-30161

NORAD 57476 · 2023-107V

PAYLOAD ACTIVE UNKNOWN

§ Identity

Operator
Country
US
Launch date
2023-07-28
Launch site
AFETR
Launch vehicle
Mass (kg)
RCS (m²)

Purposes: comms

External: N2YO · Heavens-Above · Gunter

§ Orbital elements

Epoch: 2026-09-20T04:03:40.643424Z

Period
94.27 min
Inclination
43.0017°
Eccentricity
0.0001880
Mean motion
15.27574596 rev/d
Perigee alt
481.8 km
Apogee alt
484.4 km
Semi-major
6,861.2 km
B*
3.8627e-5
RAAN
317.4912°
Arg perigee
266.6753°
Mean anomaly
93.3884°
Rev number
17,489

§ Raw data

STARLINK-301611 57476U 23107V   26263.16922041  .00000801  00000+0  38627-4 0  99942 57476  43.0017 317.4912 0001880 266.6753  93.3884 15.27574596174890

JSON: /api/v1/satellites/57476 · /tle

For live sub-satellite position, see the globe view (requires WebGL).

§ Visibility from observer

Set your observer location to see the next 7 days of passes ≥ 10°. The values pass through the URL so the page stays shareable.

No JS? Fill the form by hand. The geolocation button needs JavaScript.